Torna al catalogo

SL-8 R/B

AttivoPO
NORAD 13128·ROCKET BODY·🇷🇺 Russia

Lanciato Apr 8, 1982 da Plesetsk Cosmodrome

Loading…

Prossimi Passaggi (prossime 24 ore)

TLE

AggiornatoSource: Space-Track

Epoca: Sep 14, 2026, 08:38 UTC

1 13128U 82030B   26257.35978542  .00000136  00000-0  12432-3 0  9998
2 13128  82.9230  52.4876 0028643 356.8725  22.6662 13.76002146229683

Traccia SL-8 R/B in tempo reale con AllMySat

Download on the App Store